Lapse_Rate
7.4 7.3 7.1 6.9 6.9 6.4 5.4 4.4 3.7 4.0 4.5 4.6 4.5 4.4 4.3 4.1 4.3 3.4 4.1 4.6 5.0 5.1 5.2 5.3 5.4 5.4 5.3 5.3 5.4 5.4 5.4 5.5 5.6 5.7 5.8 5.8 5.9 6.2 6.2 6.3 6.3 6.2 6.4 6.8 6.8 6.6 6.6 6.5 6.6
7.5 7.3 7.1 7.0 7.3 7.7 4.8 4.1 3.5 4.3 4.4 4.4 4.3 4.1 4.1 4.1 4.1 4.1 4.2 4.5 5.0 5.2 5.2 5.2 5.1 5.0 5.1 5.2 5.3 5.3 5.4 5.6 5.7 5.8 6.0 6.0 6.0 6.0 6.1 6.2 6.4 6.2 6.2 6.7 6.8 6.8 6.6 6.6 6.5
7.3 7.3 7.1 6.9 6.7 6.3 4.7 3.5 4.4 4.3 4.4 4.4 4.2 4.2 4.1 4.1 4.2 4.2 4.5 4.8 4.7 4.5 4.5 4.4 4.3 4.4 4.6 4.8 4.8 5.0 5.2 5.3 5.5 5.9 6.1 6.3 6.5 6.3 6.2 6.1 6.2 6.4 6.2 6.2 6.6 6.8 6.9 7.1 7.1
7.3 7.2 6.9 5.9 5.4 5.6 3.9 3.9 4.1 4.0 4.0 4.0 4.0 4.1 4.0 4.1 4.1 4.2 4.4 4.4 4.5 4.4 4.2 4.2 4.5 4.7 4.8 4.9 5.2 5.4 5.5 5.4 5.4 5.4 5.6 5.8 6.0 6.3 6.5 6.5 6.3 6.3 6.4 6.2 6.4 6.5 6.9 6.8 6.8
7.2 7.1 6.7 5.9 5.6 5.2 3.7 3.8 4.0 3.7 3.7 3.7 3.6 3.8 3.8 3.8 3.8 4.1 4.2 4.2 4.2 4.2 4.4 4.7 4.9 5.1 5.2 5.2 5.3 5.3 5.5 5.7 5.7 5.8 5.9 5.8 5.8 5.9 6.1 6.4 6.6 6.6 6.4 6.5 6.4 6.5 6.7 6.9 6.9
7.0 7.0 6.3 5.5 5.3 4.9 4.2 4.0 3.7 3.7 3.5 3.5 3.7 3.5 3.4 3.5 3.8 4.2 4.3 4.4 4.5 4.5 4.7 4.8 4.9 5.0 5.1 5.3 5.5 5.7 5.8 6.0 6.1 6.1 6.0 6.1 6.1 6.2 6.2 6.1 6.2 6.6 6.8 6.4 6.7 6.5 6.6 6.6 6.7
6.9 6.7 5.8 4.7 4.3 3.7 4.1 3.8 3.4 3.4 3.4 3.5 3.4 3.2 3.3 3.7 4.1 4.3 4.5 4.6 4.8 4.9 4.9 4.9 5.0 5.1 5.2 5.5 5.8 6.1 6.3 6.4 6.4 6.5 6.6 6.6 6.6 6.7 6.6 6.6 6.3 6.3 6.6 6.9 6.6 6.7 6.7 6.5 6.4
6.9 6.6 5.4 4.3 3.8 3.1 3.8 3.7 3.3 3.2 3.4 3.4 3.4 2.9 3.5 4.0 4.3 4.4 4.6 4.7 4.8 4.8 4.8 4.8 4.9 5.4 5.8 6.0 6.1 6.2 6.2 6.2 6.3 6.4 6.4 6.5 6.7 6.8 6.9 6.9 6.7 6.2 6.1 6.4 6.6 6.7 6.5 6.1 6.2
6.6 6.0 5.0 4.3 3.9 4.1 3.7 3.5 3.4 3.4 3.3 3.4 3.6 3.8 4.1 4.2 4.4 4.4 4.6 4.9 4.8 4.7 4.8 5.2 5.6 5.9 5.9 6.0 6.1 6.2 6.2 6.5 6.7 6.9 7.0 7.0 6.9 6.9 7.0 7.0 6.9 6.8 6.5 6.2 6.2 6.3 6.3 6.1 6.1
6.4 5.5 4.5 4.4 4.3 4.2 3.8 3.3 3.3 3.5 3.3 3.5 3.8 3.9 4.2 4.4 4.4 4.7 4.8 4.6 4.6 4.9 5.4 5.8 6.0 6.0 6.0 6.1 6.1 6.2 6.4 6.4 6.5 6.6 6.7 6.8 6.8 6.8 6.8 6.8 6.9 7.0 6.9 6.6 6.2 6.2 6.2 6.4 5.9
6.3 5.9 5.3 4.6 4.2 3.9 3.9 3.6 3.4 3.3 3.4 3.7 3.9 4.1 4.4 4.5 4.7 4.8 4.7 4.8 5.2 5.5 5.7 5.9 6.0 5.9 5.8 5.9 6.0 6.1 6.2 6.3 6.4 6.4 6.4 6.5 6.5 6.5 6.5 6.5 6.6 6.5 6.7 6.8 6.5 6.2 6.0 5.9 6.4
6.2 5.4 4.8 4.4 3.8 3.7 3.6 3.5 3.1 2.7 3.7 4.1 4.3 4.5 4.5 4.6 4.7 4.8 4.9 5.2 5.5 5.7 5.8 5.8 5.7 5.5 5.6 5.7 5.8 5.9 6.1 6.2 6.1 6.2 6.2 6.3 6.3 6.3 6.4 6.5 6.5 6.5 6.5 6.5 6.7 6.3 6.2 5.6 5.8
5.6 4.8 4.3 3.9 3.7 3.5 3.4 3.3 3.9 3.9 4.2 4.3 4.3 4.4 4.6 4.7 4.8 5.0 5.4 5.6 5.5 5.6 5.7 5.6 5.4 5.4 5.6 5.7 5.8 6.0 6.0 5.9 5.9 5.8 6.0 6.0 6.0 6.1 6.1 6.3 6.4 6.5 6.4 6.3 6.5 6.3 6.1 6.0 5.5
5.1 4.6 4.1 3.6 3.5 3.3 3.5 3.8 4.0 4.2 4.3 4.3 4.5 4.7 4.8 4.9 5.1 5.5 5.4 5.4 5.5 5.6 5.6 5.5 5.4 5.4 5.5 5.8 5.9 5.8 5.7 5.5 5.5 5.6 5.8 5.8 5.8 5.8 6.0 6.1 6.2 6.3 6.2 6.0 6.1 6.1 5.6 5.9 5.7
5.1 5.0 3.7 3.2 3.3 3.5 3.6 3.9 3.5 4.4 4.5 4.6 4.7 4.8 4.9 5.1 5.4 5.4 5.4 5.5 5.6 5.6 5.6 5.4 5.4 5.3 5.6 5.7 5.6 5.5 5.3 5.1 5.3 5.4 5.5 5.5 5.4 5.3 5.1 5.0 5.1 5.0 4.7 4.5 4.4 4.8 4.7 5.3 5.4
4.5 3.8 3.7 3.4 3.5 4.0 4.2 4.0 4.4 4.5 4.7 4.6 4.6 4.8 5.2 5.3 5.4 5.4 5.5 5.6 5.5 5.4 5.4 5.2 5.2 5.4 5.6 5.5 5.4 5.2 5.0 5.1 5.2 5.2 5.1 5.1 4.9 4.9 4.8 5.0 5.0 5.0 5.4 5.5 4.9 4.6 4.5 4.9 5.3
4.7 4.9 4.7 4.1 4.3 4.5 4.4 4.2 4.6 4.7 4.9 4.7 4.9 5.0 5.2 5.3 5.4 5.3 5.5 5.5 5.4 5.4 5.2 5.2 5.3 5.5 5.5 5.4 5.3 5.1 5.0 5.0 5.0 4.9 4.8 4.9 4.8 5.0 5.4 5.6 6.1 6.8 7.2 6.9 6.4 5.9 5.4 5.4 5.4
5.8 5.3 4.9 4.7 4.9 4.7 4.3 4.3 4.5 4.8 5.1 5.2 5.1 5.0 5.1 5.1 5.1 5.2 5.4 5.4 5.5 5.4 5.3 5.3 5.4 5.4 5.3 5.2 5.1 4.9 5.0 4.9 4.9 4.8 4.9 4.8 5.0 5.5 5.9 6.4 7.1 7.7 7.6 7.3 6.9 6.6 6.3 6.4 6.4
6.0 5.7 5.4 4.8 5.0 4.5 4.3 4.5 4.6 5.0 5.2 5.4 5.2 5.1 4.9 5.2 5.2 5.3 5.5 5.5 5.4 5.3 5.3 5.3 5.3 5.2 5.1 5.0 5.1 4.9 4.8 4.8 4.7 4.9 4.9 4.9 5.2 5.8 6.2 6.7 7.2 7.3 7.6 7.8 7.2 6.8 6.6 6.6 6.7
5.9 5.7 5.1 5.0 5.1 4.8 4.5 4.7 4.6 5.2 5.3 5.4 5.3 5.2 5.2 5.4 5.3 5.3 5.4 5.4 5.4 5.4 5.3 5.2 5.1 5.1 4.9 5.0 4.9 4.8 4.8 4.6 4.8 4.8 4.9 5.0 5.3 5.8 6.4 6.7 6.9 7.1 7.5 7.6 7.0 6.6 6.5 6.6 6.6
5.8 5.9 5.4 5.3 5.0 4.8 4.6 5.0 5.0 5.4 5.6 5.6 5.6 5.6 5.5 5.4 5.1 5.1 5.2 5.3 5.4 5.4 5.1 5.1 5.0 5.0 4.9 4.9 4.7 4.7 4.7 4.7 4.9 5.1 5.1 5.0 5.4 5.9 6.6 6.7 6.6 6.8 7.1 7.5 7.1 6.8 6.5 6.1 6.3
5.6 5.6 5.5 5.4 5.0 5.9 4.8 6.6 5.5 5.3 6.0 5.9 5.8 5.8 5.7 5.5 5.1 5.1 5.1 5.3 5.5 5.2 5.1 5.0 4.9 4.9 4.8 4.7 4.7 4.7 4.5 4.6 4.7 4.9 4.9 5.1 5.6 6.2 6.6 6.6 6.5 6.6 6.8 7.1 7.1 7.0 6.6 5.9 5.9
5.5 5.5 5.3 4.9 5.0 5.0 4.8 5.1 6.2 6.2 5.5 6.4 6.1 5.9 5.8 5.5 5.2 5.0 5.2 5.6 5.4 5.2 5.1 4.9 4.8 4.7 4.6 4.7 4.7 4.6 4.6 4.6 4.7 4.9 4.8 5.1 5.7 6.5 6.7 6.6 6.5 6.4 6.5 6.8 6.7 6.9 6.7 6.0 6.2
5.7 5.4 5.0 4.7 5.0 5.2 5.1 5.3 6.3 6.2 6.5 5.9 5.9 6.0 5.9 5.6 5.3 5.2 5.6 5.7 5.4 5.2 4.9 4.7 4.6 4.5 4.6 4.7 4.7 4.6 4.5 4.6 4.7 4.6 4.5 5.1 5.9 6.6 6.8 6.5 6.4 6.2 6.3 6.5 6.5 6.6 6.7 6.5 6.4
5.4 5.3 5.1 5.2 5.2 5.8 5.0 5.5 6.5 6.5 6.7 6.6 6.4 6.3 6.0 5.7 5.5 5.6 5.8 5.7 5.2 4.9 4.7 4.6 4.4 4.5 4.7 4.6 4.6 4.5 4.5 4.5 4.4 4.4 4.4 5.1 6.0 6.7 6.8 6.4 6.3 6.1 6.0 6.2 6.3 6.3 6.4 6.2 6.2
5.5 5.7 5.6 5.9 6.5 7.0 5.0 5.9 6.7 7.1 6.9 6.8 6.7 6.3 6.1 6.1 6.0 5.8 5.9 5.4 5.0 4.7 4.5 4.4 4.4 4.6 4.6 4.6 4.5 4.5 4.5 4.5 4.3 4.2 4.5 5.2 6.2 6.6 6.6 6.2 6.1 5.9 5.8 6.0 6.1 6.1 6.1 6.0 6.0
5.3 5.4 5.2 5.2 5.0 5.5 6.4 6.2 7.0 7.2 7.0 7.0 6.6 6.4 6.4 6.4 6.2 6.1 5.8 5.4 4.9 4.6 4.4 4.4 4.6 4.7 4.6 4.6 4.4 4.4 4.5 4.4 4.2 4.1 4.6 5.3 6.3 6.7 6.5 6.1 6.0 5.8 5.6 5.8 6.0 6.0 5.9 5.8 5.8
5.2 5.5 5.1 5.4 5.4 5.8 6.8 7.0 6.9 7.3 7.3 7.0 6.9 6.7 6.7 6.4 6.3 6.2 5.9 5.1 4.6 4.3 4.4 4.5 4.7 4.7 4.7 4.5 4.3 4.4 4.4 4.4 4.1 4.1 4.6 5.3 6.2 6.7 6.5 6.1 5.9 5.7 5.6 5.6 5.7 5.7 5.7 5.7 5.7
5.0 4.9 5.2 5.4 5.3 6.1 6.4 7.3 7.3 7.4 7.1 7.1 7.0 6.9 6.7 6.5 6.4 6.2 5.6 4.9 4.4 4.4 4.4 4.5 4.7 4.6 4.7 4.5 4.3 4.4 4.4 4.3 4.1 4.2 4.5 5.1 6.1 6.6 6.4 6.0 5.8 5.6 5.4 5.4 5.6 5.5 5.5 5.6 5.5
4.9 5.1 5.5 5.7 5.1 5.2 5.1 7.1 7.3 7.2 7.1 7.2 7.0 6.9 6.8 6.7 6.5 5.9 5.4 4.6 4.4 4.5 4.5 4.6 4.7 4.7 4.6 4.5 4.4 4.4 4.4 4.3 4.2 4.2 4.4 4.8 5.8 6.4 6.3 5.9 5.6 5.5 5.2 5.3 5.4 5.5 5.5 5.5 5.5
Wind_Speed
4 5 3 4 5 4 6 6 6 5 5 17 14 14 20 15 8 5 6 13 16 17 18 22 24 23 24 24 24 25 27 28 30 30 31 30 30 30 29 27 26 25 28 27 23 17 16 18 19
2 2 2 1 4 6 5 5 9 10 12 11 11 9 10 13 10 8 5 12 14 16 18 22 25 24 24 24 24 25 26 28 29 30 31 30 30 29 28 27 25 25 24 26 28 27 18 18 19
9 2 3 4 3 5 7 10 12 10 5 2 5 10 6 5 10 4 8 10 15 18 20 24 25 24 24 24 24 25 26 28 29 30 30 30 29 28 27 27 25 23 24 24 25 26 26 27 18
3 3 4 7 13 6 11 13 14 14 12 8 10 10 9 8 3 7 8 11 14 17 19 22 24 24 24 24 24 24 25 27 28 30 30 30 28 28 27 26 26 26 24 24 25 24 27 28 25
3 2 5 9 14 10 9 13 6 7 9 6 2 9 8 7 8 7 7 10 12 15 17 19 22 23 24 24 24 24 25 26 26 27 29 28 27 27 26 26 25 26 27 24 25 25 25 26 29
3 1 5 7 12 11 9 7 8 14 15 14 13 11 8 8 6 7 7 9 12 14 17 19 22 22 21 23 23 22 24 25 26 27 29 28 26 25 25 25 24 26 27 28 26 24 24 25 26
4 4 7 16 16 14 10 7 9 8 9 10 6 8 8 7 7 5 6 8 11 12 15 17 19 21 19 19 21 21 22 23 24 25 27 26 23 24 25 23 23 25 26 27 27 26 25 24 25
4 4 13 9 13 10 12 10 9 9 10 8 2 4 9 10 6 5 6 7 9 10 13 16 18 20 22 22 23 22 22 24 25 26 28 27 23 22 24 22 23 24 24 26 26 27 25 23 23
2 3 7 8 12 13 14 13 5 5 10 9 11 14 12 10 5 4 4 8 8 9 12 14 17 21 23 24 25 23 22 23 24 25 27 25 24 22 24 22 23 21 23 25 24 24 26 23 19
5 4 7 6 14 17 13 14 15 14 16 16 14 12 10 6 5 5 7 9 9 10 11 14 17 20 23 21 22 21 20 21 22 24 26 23 23 22 23 22 22 21 22 21 24 25 21 20 16
6 7 16 13 18 19 18 14 14 15 13 12 13 11 8 5 4 6 7 8 8 9 10 14 15 17 19 20 20 18 17 19 20 23 25 24 22 21 21 20 21 21 22 19 21 23 19 21 16
15 15 17 19 15 18 16 17 10 11 14 13 12 10 7 5 5 5 7 8 8 9 11 13 14 16 17 19 19 18 17 18 19 20 23 22 20 20 21 19 20 19 20 21 19 18 23 21 23
23 19 18 17 16 15 15 14 10 12 12 11 9 6 5 4 3 3 5 5 7 9 9 10 13 15 16 18 19 17 17 17 18 18 20 22 20 18 20 19 20 20 21 21 19 19 19 19 19
17 22 19 17 16 13 14 14 7 10 9 8 6 5 3 1 3 3 4 7 7 8 10 10 12 13 15 17 18 16 16 17 16 17 18 22 22 21 20 17 17 19 22 22 20 16 13 13 15
24 24 16 14 12 13 12 8 9 12 9 8 7 5 2 1 2 3 5 6 6 8 9 9 10 11 15 17 17 16 17 17 16 17 18 21 22 23 22 17 14 17 21 21 19 18 19 14 13
20 11 10 9 12 9 5 10 10 11 10 9 7 4 3 1 3 3 5 6 7 9 10 8 9 12 16 17 16 16 17 16 16 17 18 21 23 24 22 17 14 22 20 17 14 11 12 13 13
5 9 8 11 10 6 7 9 12 12 11 8 6 5 3 2 2 1 4 5 7 9 8 7 8 11 16 16 16 16 16 16 16 18 19 22 22 25 22 18 18 19 16 12 11 10 11 14 13
10 8 11 9 13 8 9 8 13 13 12 10 8 6 5 4 1 2 4 5 6 8 5 5 7 12 15 14 15 15 15 15 17 18 19 22 22 22 21 19 19 18 11 10 10 12 12 14 12
11 8 10 6 5 9 9 8 13 13 12 12 10 8 7 5 0 1 3 2 6 6 5 7 9 11 10 9 10 10 10 10 12 18 20 22 22 22 21 19 17 18 10 13 13 12 17 12 11
8 13 10 5 8 7 8 10 11 14 15 13 11 10 8 6 4 1 2 2 5 4 5 6 9 11 10 9 9 10 10 10 14 18 18 20 21 21 21 19 14 18 12 13 13 14 11 11 10
9 8 12 5 9 4 5 12 15 15 14 12 13 10 8 7 4 2 2 2 4 4 4 6 9 11 11 14 11 12 12 12 10 11 12 19 20 20 20 21 17 17 13 11 13 13 14 10 11
7 2 7 8 8 2 3 3 8 16 17 17 14 13 11 8 5 4 3 2 3 2 3 6 9 10 10 13 11 14 12 12 11 11 12 17 20 20 19 22 23 19 16 12 12 12 11 11 10
4 9 5 6 3 3 6 4 2 6 17 18 17 14 12 9 6 4 4 2 2 2 4 6 8 9 10 11 11 11 13 12 11 11 14 14 18 19 20 22 20 17 13 10 15 13 12 9 7
14 11 8 4 2 3 4 4 5 7 10 12 15 14 13 10 7 5 4 1 2 3 5 6 8 8 9 11 11 13 15 15 12 14 11 11 11 16 19 22 19 20 18 14 12 12 13 11 10
6 11 1 3 3 2 2 5 7 3 5 2 7 12 13 11 8 6 5 1 2 3 4 7 8 9 9 11 11 13 15 15 15 14 12 14 11 10 13 20 17 14 19 18 17 11 12 12 10
12 7 2 2 2 2 3 6 1 2 2 3 3 8 12 11 7 7 3 1 4 3 4 7 8 8 10 10 11 11 14 10 10 13 11 10 10 10 20 19 19 20 20 20 18 9 10 11 9
7 7 2 2 1 3 3 5 9 7 4 6 7 12 12 10 8 7 4 3 4 3 4 5 6 8 9 10 9 11 12 13 12 14 14 11 15 16 19 19 17 20 20 21 17 9 11 11 11
4 8 4 4 3 3 4 5 4 7 10 10 11 12 11 8 8 6 4 5 5 4 3 4 4 7 9 9 9 10 12 13 13 13 14 14 16 18 18 18 18 18 20 21 15 11 12 12 9
5 3 4 3 2 2 2 2 1 4 9 11 11 11 9 7 6 5 5 6 6 4 2 3 4 7 8 8 9 11 11 12 13 12 13 15 17 18 16 16 15 15 16 17 14 13 13 13 13
8 7 5 3 4 0 2 5 0 4 4 11 12 11 9 6 6 5 6 7 6 3 1 3 4 7 8 7 8 10 11 11 11 12 13 17 14 18 18 18 14 15 17 15 16 14 14 14 14
Wind_Direction
195 190 265 229 209 84 92 88 94 117 82 66 65 72 78 47 21 60 55 14 3 9 4 5 4 3 3 8 7 9 11 11 9 9 9 9 7 7 2 357 355 354 356 357 345 296 283 276 273
52 198 209 325 268 220 93 128 97 82 110 104 68 92 67 70 65 82 36 14 10 14 9 11 6 6 6 9 9 11 12 11 9 8 7 6 6 7 5 0 353 353 344 350 356 355 310 284 276
65 27 30 40 3 69 114 119 114 105 130 117 114 60 52 66 54 68 46 19 18 17 14 16 9 10 10 12 11 12 13 10 8 6 6 5 4 4 5 2 356 346 342 344 344 352 350 349 313
255 114 88 67 89 60 119 123 122 113 101 82 111 83 93 32 75 61 48 30 23 21 16 22 13 15 15 16 14 14 12 9 6 5 3 3 3 2 2 0 359 354 343 339 342 335 341 344 341
44 105 88 95 79 112 115 126 78 93 100 92 16 95 95 86 79 69 55 36 25 27 21 23 19 19 18 16 13 12 10 8 8 6 4 2 1 1 1 358 356 355 351 340 337 338 336 336 336
101 266 146 120 113 108 108 108 113 99 101 102 101 102 92 111 98 82 61 44 35 29 22 20 23 20 17 13 12 9 8 6 5 4 2 359 358 358 358 357 354 352 351 346 338 330 333 333 328
76 58 94 122 126 128 122 126 130 112 114 96 127 107 110 133 98 91 76 51 42 33 28 23 19 18 16 18 11 7 5 4 2 1 360 357 354 354 356 353 354 349 347 347 344 338 331 331 327
89 84 136 138 156 131 133 114 112 111 91 100 334 133 129 116 118 108 69 58 48 41 31 21 17 14 11 13 12 5 2 1 359 358 358 352 350 352 352 350 351 347 346 345 342 342 335 331 329
285 132 138 141 155 136 142 129 112 127 121 99 89 95 107 113 129 81 46 53 43 37 30 23 13 12 8 8 5 2 359 359 358 357 356 350 351 347 345 345 343 343 342 343 342 340 338 334 331
4 102 103 111 112 135 137 128 128 127 121 114 107 105 112 120 88 51 39 30 28 22 25 18 12 8 3 5 360 358 357 357 356 356 353 350 346 348 341 339 339 338 341 337 343 340 332 335 330
21 100 116 108 115 127 129 125 137 130 120 124 122 122 123 117 89 40 35 28 16 16 20 10 11 5 3 357 355 355 352 354 354 357 356 348 345 347 345 341 343 342 341 340 341 338 334 330 329
106 99 109 113 123 130 121 129 129 111 107 111 112 119 127 111 64 29 18 11 13 9 18 5 4 2 360 350 355 351 352 356 355 355 359 350 347 347 344 341 340 341 341 336 339 333 327 327 320
102 107 110 118 117 113 132 124 113 117 121 119 115 129 121 84 52 30 359 348 10 14 15 1 355 358 352 349 352 351 354 357 350 353 358 353 349 349 343 341 340 341 342 334 337 329 326 320 315
124 117 116 118 117 126 126 126 145 141 140 138 151 150 133 94 15 353 0 6 2 3 5 355 348 351 347 351 352 349 358 349 351 351 355 355 349 349 343 338 340 340 341 334 328 323 318 314 305
120 115 119 125 132 138 142 145 139 154 170 174 179 174 174 208 304 344 356 344 359 351 355 348 333 347 351 353 351 349 2 345 349 350 351 356 350 346 339 337 339 341 336 332 327 324 320 314 302
122 125 141 154 157 156 272 150 157 165 185 191 187 180 209 202 330 356 354 340 352 345 344 327 336 350 351 356 350 351 354 343 348 348 346 353 343 345 337 334 337 347 330 333 328 327 319 311 306
202 158 153 158 191 173 234 140 173 181 198 197 204 208 207 209 223 344 349 0 354 348 339 336 351 357 351 352 348 351 349 346 346 347 349 348 341 343 337 331 343 333 326 325 324 326 318 307 312
168 151 163 167 191 207 194 206 171 184 205 214 218 217 216 222 261 10 340 358 345 2 352 357 2 358 350 350 349 349 345 347 345 346 350 345 345 343 337 334 343 333 328 329 329 331 314 314 338
147 155 163 148 164 213 219 212 188 188 207 219 221 224 221 226 186 301 351 339 325 9 10 13 4 1 353 356 354 348 341 344 344 347 346 347 348 347 338 346 342 339 335 338 333 333 331 339 329
148 147 136 128 165 230 203 229 205 197 212 221 223 224 226 223 227 240 324 297 348 5 20 9 8 3 2 359 352 343 339 343 344 347 347 351 347 344 344 347 342 344 337 342 351 340 343 328 332
157 174 166 149 167 212 243 247 217 210 217 223 233 241 225 231 249 269 256 289 341 28 22 12 7 5 10 359 350 345 344 347 349 349 350 348 346 346 351 347 341 346 346 344 348 351 344 330 333
177 154 142 142 188 248 227 306 205 209 215 220 222 220 219 213 219 253 236 274 13 55 40 15 9 6 9 1 351 350 351 349 351 350 347 342 347 353 358 350 351 344 342 346 346 352 339 339 335
120 148 140 147 186 279 189 248 178 212 215 217 216 209 209 205 219 232 212 306 58 100 53 18 1 6 360 357 358 352 355 350 349 350 343 348 349 356 359 353 341 350 346 345 350 343 346 343 332
135 132 125 154 241 251 216 228 262 184 221 210 205 199 199 198 204 209 200 251 119 88 41 6 358 358 358 356 357 356 356 353 351 351 347 347 351 357 354 348 347 355 354 352 347 340 350 348 341
184 173 150 225 211 247 157 234 269 193 153 126 192 192 190 191 201 201 207 196 114 81 28 3 355 351 357 354 354 358 359 356 352 349 349 354 348 348 355 350 345 353 357 348 349 350 352 350 346
195 218 233 257 223 90 182 236 118 93 102 231 185 184 182 189 194 202 192 98 123 93 29 3 351 350 355 353 354 1 2 358 353 351 354 359 353 343 357 349 351 354 355 353 352 353 355 355 354
174 216 56 128 68 262 226 280 255 194 163 165 168 169 182 187 190 191 167 110 119 91 36 6 347 355 357 354 357 3 2 1 355 352 357 359 357 349 356 353 359 358 355 356 355 0 2 1 0
255 130 182 210 202 230 240 257 242 194 193 181 176 184 178 182 185 178 156 125 127 95 40 6 356 0 357 360 5 3 2 2 357 359 1 1 0 357 1 359 1 355 359 359 360 5 6 7 10
158 173 37 97 325 266 277 243 136 132 184 185 187 189 182 186 183 173 121 138 132 112 26 13 16 2 5 10 6 3 2 1 1 7 4 3 5 5 6 2 358 360 3 359 2 5 9 10 14
224 180 173 213 183 64 341 272 273 130 164 193 196 190 185 190 174 147 140 151 147 127 38 44 25 11 14 18 5 6 5 3 7 10 7 6 7 10 10 3 2 1 6 4 2 5 10 12 12